| time (UTC) | temp F | wind direction | speed MPH | gust MPH | rain 1hr in | rain 24hr in | rain mn in | humidity % | barometer mb |
| 20260901003203 | 74 | 165 | 0.0 | 1.0 | 0.00 | 0.00 | 0.00 | 69 | 1015.2 |
| 20260901003003 | 73 | 169 | 0.0 | 1.0 | 0.00 | 0.00 | 0.00 | 68 | 1015.1 |
| 20260901002126 | 74 | 200 | 0.0 | 1.0 | 0.00 | 0.00 | 0.00 | 69 | 1015.2 |
| 20260901001507 | 73 | 215 | 0.0 | 1.0 | 0.00 | 0.00 | 0.00 | 68 | 1015.2 |
| 20260901001133 | 74 | 215 | 0.0 | 1.0 | 0.00 | 0.00 | 0.00 | 68 | 1015.1 |
| 20260901000130 | 75 | 158 | 0.0 | 1.0 | 0.00 | 0.00 | 0.00 | 67 | 1015.1 |
| 20260901000018 | 75 | 158 | 0.0 | 1.0 | 0.00 | 0.00 | 0.00 | 66 | 1015.0 |
| 20260831235130 | 75 | 158 | 0.0 | 2.0 | 0.00 | 0.00 | 0.00 | 66 | 1015.0 |
| 20260831234515 | 75 | 148 | 1.0 | 2.0 | 0.00 | 0.00 | 0.00 | 66 | 1015.1 |
| 20260831234143 | 75 | 102 | 0.0 | 1.0 | 0.00 | 0.00 | 0.00 | 67 | 1015.1 |
| 20260831233128 | 75 | 154 | 0.0 | 2.0 | 0.00 | 0.00 | 0.00 | 67 | 1014.9 |
| 20260831233009 | 74 | 125 | 1.0 | 2.0 | 0.00 | 0.00 | 0.00 | 67 | 1014.8 |
| 20260831232130 | 75 | 101 | 1.0 | 1.0 | 0.00 | 0.00 | 0.00 | 67 | 1014.8 |
| 20260831231507 | 76 | 129 | 0.0 | 1.0 | 0.00 | 0.00 | 0.00 | 64 | 1014.6 |
| 20260831231128 | 76 | 134 | 1.0 | 2.0 | 0.00 | 0.00 | 0.00 | 65 | 1014.8 |
| 20260831230130 | 76 | 158 | 0.0 | 2.0 | 0.00 | 0.00 | 0.00 | 65 | 1014.7 |
| 20260831230012 | 75 | 144 | 0.0 | 2.0 | 0.00 | 0.00 | 0.00 | 65 | 1014.5 |
| 20260831225202 | 76 | 153 | 0.0 | 1.0 | 0.00 | 0.00 | 0.00 | 65 | 1014.6 |
| 20260831224504 | 76 | 148 | 0.0 | 1.0 | 0.00 | 0.00 | 0.00 | 65 | 1014.5 |
| 20260831224129 | 76 | 171 | 0.0 | 1.0 | 0.00 | 0.00 | 0.00 | 65 | 1014.5 |
| 20260831223131 | 77 | 167 | 0.0 | 1.0 | 0.00 | 0.00 | 0.00 | 64 | 1014.5 |
| 20260831223024 | 76 | 166 | 0.0 | 1.0 | 0.00 | 0.00 | 0.00 | 64 | 1014.4 |
| 20260831222137 | 77 | 155 | 0.0 | 1.0 | 0.00 | 0.00 | 0.00 | 64 | 1014.5 |
| 20260831221517 | 77 | 142 | 0.0 | 1.0 | 0.00 | 0.00 | 0.00 | 63 | 1014.4 |
| 20260831220135 | 78 | 173 | 1.0 | 2.0 | 0.00 | 0.00 | 0.00 | 63 | 1014.4 |
| 20260831220013 | 77 | 158 | 1.0 | 2.0 | 0.00 | 0.00 | 0.00 | 63 | 1014.3 |
| 20260831215139 | 78 | 139 | 0.0 | 2.0 | 0.00 | 0.00 | 0.00 | 63 | 1014.4 |
| 20260831214517 | 77 | 115 | 1.0 | 3.0 | 0.00 | 0.00 | 0.00 | 63 | 1014.2 |
| 20260831214131 | 78 | 162 | 1.0 | 3.0 | 0.00 | 0.00 | 0.00 | 64 | 1014.3 |
| 20260831213132 | 78 | 164 | 1.0 | 2.0 | 0.00 | 0.00 | 0.00 | 64 | 1014.2 |
| 20260831213004 | 77 | 136 | 0.0 | 2.0 | 0.00 | 0.00 | 0.00 | 63 | 1014.2 |
| 20260831212136 | 78 | 157 | 0.0 | 1.0 | 0.00 | 0.00 | 0.00 | 64 | 1014.2 |
| 20260831211511 | 77 | 146 | 0.0 | 2.0 | 0.00 | 0.00 | 0.00 | 63 | 1014.0 |
| 20260831211137 | 78 | 158 | 1.0 | 2.0 | 0.00 | 0.00 | 0.00 | 64 | 1014.1 |
| 20260831210150 | 78 | 153 | 0.0 | 2.0 | 0.00 | 0.00 | 0.00 | 63 | 1014.1 |
| 20260831210023 | 78 | 124 | 0.0 | 2.0 | 0.00 | 0.00 | 0.00 | 63 | 1013.9 |
| 20260831205129 | 78 | 152 | 1.0 | 3.0 | 0.00 | 0.00 | 0.00 | 64 | 1013.8 |
| 20260831204524 | 77 | 135 | 1.0 | 3.0 | 0.00 | 0.00 | 0.00 | 65 | 1013.6 |
| 20260831204132 | 78 | 127 | 0.0 | 3.0 | 0.00 | 0.00 | 0.00 | 65 | 1013.8 |
| 20260831203154 | 78 | 213 | 1.0 | 3.0 | 0.00 | 0.00 | 0.00 | 66 | 1013.5 |
| 20260831203015 | 78 | 191 | 1.0 | 3.0 | 0.00 | 0.00 | 0.00 | 65 | 1013.4 |
| 20260831202139 | 79 | 222 | 1.0 | 3.0 | 0.00 | 0.00 | 0.00 | 66 | 1013.5 |
| 20260831201516 | 78 | 158 | 1.0 | 4.0 | 0.00 | 0.00 | 0.00 | 67 | 1013.4 |
| 20260831201203 | 79 | 145 | 2.0 | 4.0 | 0.00 | 0.00 | 0.00 | 68 | 1013.6 |
| 20260831200144 | 79 | 162 | 0.0 | 4.0 | 0.00 | 0.00 | 0.00 | 68 | 1013.6 |
| 20260831200010 | 78 | 182 | 0.0 | 4.0 | 0.00 | 0.00 | 0.00 | 68 | 1013.4 |
| 20260831195125 | 79 | 145 | 1.0 | 4.0 | 0.00 | 0.00 | 0.00 | 69 | 1013.5 |
| 20260831194504 | 79 | 140 | 2.0 | 4.0 | 0.00 | 0.00 | 0.00 | 69 | 1013.3 |
| 20260831194129 | 79 | 162 | 0.0 | 4.0 | 0.00 | 0.00 | 0.00 | 69 | 1013.6 |
| 20260831193124 | 79 | 131 | 1.0 | 4.0 | 0.00 | 0.00 | 0.00 | 71 | 1013.6 |
| 20260831193029 | 79 | 133 | 1.0 | 4.0 | 0.00 | 0.00 | 0.00 | 71 | 1013.4 |
| 20260831192137 | 79 | 165 | 1.0 | 4.0 | 0.00 | 0.00 | 0.00 | 71 | 1013.5 |
| 20260831191524 | 79 | 106 | 0.0 | 3.0 | 0.00 | 0.00 | 0.00 | 71 | 1013.3 |
| 20260831191132 | 80 | 133 | 1.0 | 3.0 | 0.00 | 0.00 | 0.00 | 72 | 1013.5 |
| 20260831190139 | 80 | 103 | 1.0 | 4.0 | 0.00 | 0.00 | 0.00 | 71 | 1013.4 |
| 20260831190032 | 79 | 97 | 1.0 | 4.0 | 0.00 | 0.00 | 0.00 | 71 | 1013.3 |
| 20260831185134 | 80 | 158 | 1.0 | 4.0 | 0.00 | 0.00 | 0.00 | 71 | 1013.3 |
| 20260831184517 | 80 | 110 | 1.0 | 4.0 | 0.00 | 0.00 | 0.00 | 71 | 1013.1 |
| 20260831184140 | 80 | 127 | 1.0 | 4.0 | 0.00 | 0.00 | 0.00 | 71 | 1013.3 |
| 20260831183150 | 81 | 160 | 1.0 | 5.0 | 0.00 | 0.00 | 0.00 | 72 | 1013.2 |
| 20260831183012 | 80 | 170 | 1.0 | 5.0 | 0.00 | 0.00 | 0.00 | 71 | 1013.0 |
| 20260831182141 | 81 | 110 | 1.0 | 5.0 | 0.00 | 0.00 | 0.00 | 72 | 1013.1 |
| 20260831181510 | 80 | 142 | 2.0 | 5.0 | 0.00 | 0.00 | 0.00 | 71 | 1013.1 |
| 20260831181139 | 81 | 98 | 2.0 | 4.0 | 0.00 | 0.00 | 0.00 | 71 | 1013.1 |
| 20260831180135 | 82 | 158 | 1.0 | 2.0 | 0.00 | 0.00 | 0.00 | 70 | 1013.1 |
| 20260831180032 | 81 | 77 | 0.0 | 2.0 | 0.00 | 0.00 | 0.00 | 69 | 1013.0 |
| 20260831175126 | 82 | 93 | 2.0 | 7.0 | 0.00 | 0.00 | 0.00 | 68 | 1013.1 |
| 20260831174530 | 82 | 102 | 4.0 | 8.0 | 0.00 | 0.00 | 0.00 | 67 | 1013.0 |
| 20260831174138 | 83 | 117 | 4.0 | 8.0 | 0.00 | 0.00 | 0.00 | 67 | 1013.1 |
| 20260831173140 | 83 | 107 | 4.0 | 13.0 | 0.00 | 0.00 | 0.00 | 65 | 1013.1 |
| 20260831173026 | 83 | 94 | 5.0 | 13.0 | 0.00 | 0.00 | 0.00 | 64 | 1013.0 |
| 20260831172133 | 84 | 163 | 5.0 | 9.0 | 0.00 | 0.00 | 0.00 | 63 | 1013.1 |
| 20260831171518 | 84 | 135 | 4.0 | 10.0 | 0.00 | 0.00 | 0.00 | 62 | 1013.2 |
| 20260831171154 | 84 | 100 | 4.0 | 10.0 | 0.00 | 0.00 | 0.00 | 62 | 1013.2 |
| 20260831170147 | 85 | 78 | 5.0 | 10.0 | 0.00 | 0.00 | 0.00 | 61 | 1013.3 |
| 20260831170015 | 84 | 122 | 4.0 | 10.0 | 0.00 | 0.00 | 0.00 | 60 | 1013.2 |
| 20260831165138 | 85 | 107 | 5.0 | 11.0 | 0.00 | 0.00 | 0.00 | 60 | 1013.3 |
| 20260831164518 | 85 | 131 | 6.0 | 11.0 | 0.00 | 0.00 | 0.00 | 56 | 1013.3 |
| 20260831164157 | 85 | 143 | 5.0 | 10.0 | 0.00 | 0.00 | 0.00 | 58 | 1013.4 |
| 20260831163129 | 85 | 66 | 7.0 | 12.0 | 0.00 | 0.00 | 0.00 | 59 | 1013.4 |
| 20260831163031 | 85 | 95 | 8.0 | 12.0 | 0.00 | 0.00 | 0.00 | 59 | 1013.3 |
| 20260831162140 | 85 | 95 | 6.0 | 12.0 | 0.00 | 0.00 | 0.00 | 61 | 1013.5 |
| 20260831161532 | 85 | 82 | 9.0 | 12.0 | 0.00 | 0.00 | 0.00 | 59 | 1013.4 |
| 20260831161158 | 86 | 145 | 7.0 | 12.0 | 0.00 | 0.00 | 0.00 | 59 | 1013.5 |
| 20260831160143 | 86 | 111 | 8.0 | 14.0 | 0.00 | 0.00 | 0.00 | 60 | 1013.5 |
| 20260831160030 | 85 | 79 | 8.0 | 14.0 | 0.00 | 0.00 | 0.00 | 59 | 1013.5 |
| 20260831155135 | 86 | 105 | 10.0 | 14.0 | 0.00 | 0.00 | 0.00 | 59 | 1013.6 |
| 20260831154551 | 85 | 96 | 7.0 | 13.0 | 0.00 | 0.00 | 0.00 | 58 | 1013.5 |
| 20260831154130 | 86 | 98 | 8.0 | 13.0 | 0.00 | 0.00 | 0.00 | 60 | 1013.6 |
| 20260831153130 | 86 | 79 | 9.0 | 14.0 | 0.00 | 0.00 | 0.00 | 59 | 1013.6 |
| 20260831153023 | 85 | 99 | 8.0 | 14.0 | 0.00 | 0.00 | 0.00 | 58 | 1013.5 |
| 20260831152131 | 86 | 84 | 11.0 | 15.0 | 0.00 | 0.00 | 0.00 | 60 | 1013.7 |
| 20260831151517 | 85 | 110 | 10.0 | 14.0 | 0.00 | 0.00 | 0.00 | 57 | 1013.6 |
| 20260831151142 | 86 | 94 | 10.0 | 14.0 | 0.00 | 0.00 | 0.00 | 58 | 1013.7 |
| 20260831150133 | 86 | 84 | 9.0 | 14.0 | 0.00 | 0.00 | 0.00 | 57 | 1013.8 |
| 20260831150037 | 86 | 88 | 8.0 | 14.0 | 0.00 | 0.00 | 0.00 | 58 | 1013.7 |
| 20260831145137 | 87 | 88 | 9.0 | 12.0 | 0.00 | 0.00 | 0.00 | 58 | 1013.7 |
| 20260831144508 | 86 | 90 | 9.0 | 12.0 | 0.00 | 0.00 | 0.00 | 53 | 1013.6 |
| 20260831144133 | 87 | 78 | 9.0 | 11.0 | 0.00 | 0.00 | 0.00 | 54 | 1013.8 |
| 20260831143143 | 87 | 77 | 9.0 | 13.0 | 0.00 | 0.00 | 0.00 | 57 | 1013.7 |
| 20260831143008 | 86 | 85 | 9.0 | 13.0 | 0.00 | 0.00 | 0.00 | 55 | 1013.6 |
| 20260831142128 | 87 | 79 | 10.0 | 12.0 | 0.00 | 0.00 | 0.00 | 55 | 1013.8 |
| 20260831141502 | 86 | 102 | 8.0 | 14.0 | 0.00 | 0.00 | 0.00 | 56 | 1013.6 |
| 20260831141141 | 87 | 77 | 10.0 | 14.0 | 0.00 | 0.00 | 0.00 | 57 | 1013.8 |
| 20260831140129 | 87 | 89 | 9.0 | 13.0 | 0.00 | 0.00 | 0.00 | 54 | 1013.8 |
| 20260831140034 | 86 | 91 | 10.0 | 13.0 | 0.00 | 0.00 | 0.00 | 55 | 1013.6 |
| 20260831135136 | 87 | 70 | 9.0 | 15.0 | 0.00 | 0.00 | 0.00 | 55 | 1013.7 |
| 20260831134520 | 86 | 79 | 11.0 | 14.0 | 0.00 | 0.00 | 0.00 | 56 | 1013.6 |
| 20260831134135 | 87 | 91 | 10.0 | 14.0 | 0.00 | 0.00 | 0.00 | 54 | 1013.8 |
| 20260831133140 | 87 | 84 | 9.0 | 14.0 | 0.00 | 0.00 | 0.00 | 56 | 1013.9 |
| 20260831133014 | 87 | 94 | 11.0 | 14.0 | 0.00 | 0.00 | 0.00 | 53 | 1013.7 |
| 20260831132126 | 88 | 25 | 9.0 | 13.0 | 0.00 | 0.00 | 0.00 | 51 | 1014.0 |
| 20260831131514 | 87 | 62 | 7.0 | 14.0 | 0.00 | 0.00 | 0.00 | 54 | 1013.9 |
| 20260831131146 | 88 | 65 | 8.0 | 14.0 | 0.00 | 0.00 | 0.00 | 53 | 1014.0 |
| 20260831130126 | 88 | 84 | 10.0 | 15.0 | 0.00 | 0.00 | 0.00 | 52 | 1014.1 |
| 20260831130008 | 87 | 71 | 9.0 | 15.0 | 0.00 | 0.00 | 0.00 | 52 | 1013.9 |
| 20260831125140 | 88 | 82 | 10.0 | 14.0 | 0.00 | 0.00 | 0.00 | 51 | 1014.2 |
| 20260831124507 | 87 | 104 | 10.0 | 16.0 | 0.00 | 0.00 | 0.00 | 53 | 1014.1 |
| 20260831124133 | 87 | 93 | 12.0 | 16.0 | 0.00 | 0.00 | 0.00 | 52 | 1014.2 |
| 20260831123138 | 89 | 91 | 9.0 | 13.0 | 0.00 | 0.00 | 0.00 | 53 | 1014.3 |
| 20260831123030 | 88 | 58 | 8.0 | 12.0 | 0.00 | 0.00 | 0.00 | 53 | 1014.2 |
| 20260831122125 | 90 | 347 | 5.0 | 10.0 | 0.00 | 0.00 | 0.00 | 50 | 1014.4 |
| 20260831121524 | 90 | 24 | 5.0 | 9.0 | 0.00 | 0.00 | 0.00 | 51 | 1014.2 |
| 20260831121133 | 91 | 52 | 4.0 | 8.0 | 0.00 | 0.00 | 0.00 | 49 | 1014.4 |
| 20260831120137 | 90 | 347 | 4.0 | 7.0 | 0.00 | 0.00 | 0.00 | 48 | 1014.5 |
| 20260831120024 | 90 | 26 | 1.0 | 7.0 | 0.00 | 0.00 | 0.00 | 47 | 1014.3 |
| 20260831115148 | 90 | 342 | 1.0 | 8.0 | 0.00 | 0.00 | 0.00 | 50 | 1014.5 |
| 20260831114514 | 90 | 335 | 2.0 | 5.0 | 0.00 | 0.00 | 0.00 | 47 | 1014.4 |
| 20260831114133 | 91 | 25 | 2.0 | 5.0 | 0.00 | 0.00 | 0.00 | 47 | 1014.6 |
| 20260831113139 | 90 | 205 | 2.0 | 5.0 | 0.00 | 0.00 | 0.00 | 46 | 1014.6 |
| 20260831113011 | 89 | 235 | 2.0 | 6.0 | 0.00 | 0.00 | 0.00 | 44 | 1014.5 |
| 20260831112126 | 90 | 295 | 4.0 | 8.0 | 0.00 | 0.00 | 0.00 | 46 | 1014.7 |
| 20260831111508 | 89 | 203 | 0.0 | 5.0 | 0.00 | 0.00 | 0.00 | 45 | 1014.6 |
| 20260831111128 | 90 | 298 | 3.0 | 5.0 | 0.00 | 0.00 | 0.00 | 44 | 1014.7 |
| 20260831110143 | 90 | 293 | 1.0 | 4.0 | 0.00 | 0.00 | 0.00 | 49 | 1014.8 |
| 20260831110031 | 90 | 1 | 1.0 | 4.0 | 0.00 | 0.00 | 0.00 | 48 | 1014.6 |
| 20260831105125 | 89 | 10 | 1.0 | 6.0 | 0.00 | 0.00 | 0.00 | 49 | 1014.8 |
| 20260831104534 | 89 | 256 | 3.0 | 6.0 | 0.00 | 0.00 | 0.00 | 46 | 1014.7 |
| 20260831104143 | 89 | 203 | 3.0 | 6.0 | 0.00 | 0.00 | 0.00 | 46 | 1014.8 |
| 20260831103126 | 89 | 90 | 0.0 | 3.0 | 0.00 | 0.00 | 0.00 | 50 | 1014.9 |
| 20260831103023 | 88 | 91 | 0.0 | 4.0 | 0.00 | 0.00 | 0.00 | 51 | 1014.8 |
| 20260831102132 | 88 | 360 | 1.0 | 4.0 | 0.00 | 0.00 | 0.00 | 50 | 1015.0 |
| 20260831101516 | 87 | 113 | 1.0 | 3.0 | 0.00 | 0.00 | 0.00 | 48 | 1014.8 |
| 20260831101141 | 88 | 198 | 0.0 | 4.0 | 0.00 | 0.00 | 0.00 | 47 | 1015.0 |
| 20260831100152 | 88 | 101 | 1.0 | 5.0 | 0.00 | 0.00 | 0.00 | 48 | 1015.1 |
| 20260831100012 | 87 | 355 | 2.0 | 5.0 | 0.00 | 0.00 | 0.00 | 47 | 1015.0 |
| 20260831095133 | 87 | 266 | 1.0 | 5.0 | 0.00 | 0.00 | 0.00 | 51 | 1015.2 |
| 20260831094510 | 86 | 315 | 1.0 | 4.0 | 0.00 | 0.00 | 0.00 | 52 | 1015.2 |
| 20260831094140 | 87 | 334 | 1.0 | 4.0 | 0.00 | 0.00 | 0.00 | 53 | 1015.2 |
| 20260831093137 | 85 | 297 | 2.0 | 6.0 | 0.00 | 0.00 | 0.00 | 55 | 1015.3 |
| 20260831093034 | 85 | 312 | 3.0 | 7.0 | 0.00 | 0.00 | 0.00 | 57 | 1015.3 |
| 20260831092133 | 85 | 320 | 1.0 | 7.0 | 0.00 | 0.00 | 0.00 | 59 | 1015.3 |
| 20260831091533 | 84 | 325 | 3.0 | 6.0 | 0.00 | 0.00 | 0.00 | 58 | 1015.3 |
| 20260831091149 | 84 | 342 | 1.0 | 7.0 | 0.00 | 0.00 | 0.00 | 60 | 1015.3 |
| 20260831090124 | 84 | 317 | 2.0 | 5.0 | 0.00 | 0.00 | 0.00 | 59 | 1015.4 |
| 20260831090027 | 83 | 331 | 2.0 | 5.0 | 0.00 | 0.00 | 0.00 | 59 | 1015.4 |
| 20260831085159 | 83 | 276 | 3.0 | 5.0 | 0.00 | 0.00 | 0.00 | 59 | 1015.4 |
| 20260831084527 | 82 | 237 | 2.0 | 6.0 | 0.00 | 0.00 | 0.00 | 61 | 1015.3 |
| 20260831084130 | 82 | 231 | 3.0 | 6.0 | 0.00 | 0.00 | 0.00 | 61 | 1015.4 |
| 20260831083140 | 82 | 305 | 1.0 | 6.0 | 0.00 | 0.00 | 0.00 | 62 | 1015.3 |
| 20260831083018 | 81 | 301 | 1.0 | 6.0 | 0.00 | 0.00 | 0.00 | 61 | 1015.2 |
| 20260831082126 | 81 | 308 | 2.0 | 5.0 | 0.00 | 0.00 | 0.00 | 63 | 1015.3 |
| 20260831081532 | 80 | 328 | 2.0 | 6.0 | 0.00 | 0.00 | 0.00 | 62 | 1015.2 |
| 20260831081141 | 80 | 328 | 1.0 | 8.0 | 0.00 | 0.00 | 0.00 | 64 | 1015.2 |
| 20260831080038 | 79 | 287 | 5.0 | 6.0 | 0.00 | 0.00 | 0.00 | 63 | 1015.1 |
| 20260831075124 | 79 | 259 | 4.0 | 6.0 | 0.00 | 0.00 | 0.00 | 64 | 1015.2 |
| 20260831074530 | 78 | 272 | 4.0 | 6.0 | 0.00 | 0.00 | 0.00 | 63 | 1015.0 |
| 20260831074132 | 78 | 254 | 5.0 | 7.0 | 0.00 | 0.00 | 0.00 | 63 | 1015.1 |
| 20260831073125 | 77 | 257 | 3.0 | 5.0 | 0.00 | 0.00 | 0.00 | 68 | 1015.0 |
| 20260831073030 | 77 | 264 | 3.0 | 5.0 | 0.00 | 0.00 | 0.00 | 67 | 1014.9 |
| 20260831072126 | 76 | 245 | 3.0 | 5.0 | 0.00 | 0.00 | 0.00 | 71 | 1015.1 |
| 20260831071527 | 75 | 251 | 2.0 | 6.0 | 0.00 | 0.00 | 0.00 | 70 | 1014.8 |
| 20260831071131 | 76 | 274 | 4.0 | 6.0 | 0.00 | 0.00 | 0.00 | 70 | 1014.9 |
| 20260831070139 | 75 | 280 | 2.0 | 5.0 | 0.00 | 0.00 | 0.00 | 72 | 1014.9 |
| 20260831070024 | 74 | 228 | 3.0 | 6.0 | 0.00 | 0.00 | 0.00 | 72 | 1014.8 |
| 20260831065155 | 74 | 240 | 5.0 | 6.0 | 0.00 | 0.00 | 0.00 | 74 | 1014.9 |
| 20260831064536 | 73 | 269 | 3.0 | 5.0 | 0.00 | 0.00 | 0.00 | 74 | 1014.8 |
| 20260831064126 | 74 | 232 | 2.0 | 4.0 | 0.00 | 0.00 | 0.00 | 76 | 1014.8 |
| 20260831063214 | 73 | 283 | 1.0 | 4.0 | 0.00 | 0.00 | 0.00 | 78 | 1014.8 |
| 20260831063016 | 72 | 233 | 2.0 | 4.0 | 0.00 | 0.00 | 0.00 | 78 | 1014.7 |
| 20260831062134 | 72 | 222 | 2.0 | 4.0 | 0.00 | 0.00 | 0.00 | 79 | 1014.8 |
| 20260831061511 | 71 | 233 | 1.0 | 2.0 | 0.00 | 0.00 | 0.00 | 79 | 1014.7 |
| 20260831061127 | 72 | 224 | 1.0 | 2.0 | 0.00 | 0.00 | 0.00 | 81 | 1014.8 |
| 20260831060137 | 70 | 231 | 0.0 | 1.0 | 0.00 | 0.00 | 0.00 | 83 | 1014.7 |
| 20260831060009 | 70 | 231 | 0.0 | 1.0 | 0.00 | 0.00 | 0.00 | 83 | 1014.6 |
| 20260831055140 | 69 | 243 | 0.0 | 1.0 | 0.00 | 0.00 | 0.00 | 84 | 1014.7 |
| 20260831054503 | 68 | 247 | 0.0 | 2.0 | 0.00 | 0.00 | 0.00 | 84 | 1014.6 |
| 20260831054134 | 68 | 237 | 0.0 | 2.0 | 0.00 | 0.00 | 0.00 | 85 | 1014.7 |
| 20260831053137 | 67 | 233 | 1.0 | 2.0 | 0.00 | 0.00 | 0.00 | 85 | 1014.7 |
| 20260831053003 | 66 | 231 | 0.0 | 2.0 | 0.00 | 0.00 | 0.00 | 85 | 1014.6 |
| 20260831052125 | 66 | 226 | 0.0 | 1.0 | 0.00 | 0.00 | 0.00 | 86 | 1014.7 |
| 20260831051511 | 66 | 200 | 0.0 | 0.0 | 0.00 | 0.00 | 0.00 | 85 | 1014.5 |
| 20260831051132 | 66 | 200 | 0.0 | 1.0 | 0.00 | 0.00 | 0.00 | 86 | 1014.6 |
| 20260831050127 | 66 | 200 | 0.0 | 1.0 | 0.00 | 0.00 | 0.00 | 86 | 1014.6 |
| 20260831050019 | 65 | 200 | 0.0 | 1.0 | 0.00 | 0.00 | 0.00 | 86 | 1014.4 |
| 20260831045131 | 66 | 202 | 0.0 | 1.0 | 0.00 | 0.00 | 0.00 | 87 | 1014.5 |
| 20260831044521 | 65 | 210 | 0.0 | 1.0 | 0.00 | 0.00 | 0.00 | 87 | 1014.4 |
| 20260831044157 | 66 | 210 | 0.0 | 1.0 | 0.00 | 0.00 | 0.00 | 87 | 1014.5 |
| 20260831043126 | 66 | 230 | 1.0 | 2.0 | 0.00 | 0.00 | 0.00 | 88 | 1014.5 |
| 20260831043011 | 65 | 219 | 1.0 | 2.0 | 0.00 | 0.00 | 0.00 | 87 | 1014.4 |
| 20260831042132 | 66 | 222 | 0.0 | 1.0 | 0.00 | 0.00 | 0.00 | 88 | 1014.4 |
| 20260831041508 | 65 | 222 | 0.0 | 2.0 | 0.00 | 0.00 | 0.00 | 88 | 1014.3 |
| 20260831041131 | 66 | 222 | 0.0 | 2.0 | 0.00 | 0.00 | 0.00 | 88 | 1014.5 |
| 20260831040205 | 66 | 224 | 2.0 | 3.0 | 0.00 | 0.00 | 0.00 | 88 | 1014.5 |
| 20260831040006 | 65 | 230 | 2.0 | 3.0 | 0.00 | 0.00 | 0.00 | 88 | 1014.4 |
| 20260831035158 | 66 | 264 | 1.0 | 3.0 | 0.00 | 0.00 | 0.00 | 88 | 1014.5 |
| 20260831034505 | 66 | 232 | 1.0 | 3.0 | 0.00 | 0.00 | 0.00 | 87 | 1014.4 |
| 20260831034126 | 66 | 224 | 1.0 | 3.0 | 0.00 | 0.00 | 0.00 | 88 | 1014.4 |
| 20260831033131 | 67 | 161 | 1.0 | 2.0 | 0.00 | 0.00 | 0.00 | 89 | 1014.4 |
| 20260831033044 | 66 | 141 | 1.0 | 2.0 | 0.00 | 0.00 | 0.00 | 88 | 1014.3 |
| 20260831032137 | 67 | 152 | 0.0 | 1.0 | 0.00 | 0.00 | 0.00 | 89 | 1014.5 |
| 20260831031516 | 66 | 148 | 0.0 | 1.0 | 0.00 | 0.00 | 0.00 | 89 | 1014.4 |
| 20260831031137 | 67 | 142 | 0.0 | 1.0 | 0.00 | 0.00 | 0.00 | 90 | 1014.5 |
| 20260831030127 | 67 | 139 | 0.0 | 1.0 | 0.00 | 0.00 | 0.00 | 91 | 1014.4 |
| 20260831030015 | 66 | 142 | 0.0 | 1.0 | 0.00 | 0.00 | 0.00 | 90 | 1014.5 |
| 20260831025143 | 67 | 105 | 1.0 | 1.0 | 0.00 | 0.00 | 0.00 | 90 | 1014.5 |
| 20260831024510 | 67 | 125 | 0.0 | 1.0 | 0.00 | 0.00 | 0.00 | 90 | 1014.4 |
| 20260831024142 | 67 | 126 | 0.0 | 1.0 | 0.00 | 0.00 | 0.00 | 90 | 1014.5 |
| 20260831023137 | 68 | 157 | 1.0 | 2.0 | 0.00 | 0.00 | 0.00 | 90 | 1014.4 |
| 20260831023008 | 67 | 155 | 0.0 | 2.0 | 0.00 | 0.00 | 0.00 | 89 | 1014.4 |
| 20260831022125 | 68 | 209 | 1.0 | 1.0 | 0.00 | 0.00 | 0.00 | 90 | 1014.4 |
| 20260831021507 | 68 | 209 | 0.0 | 1.0 | 0.00 | 0.00 | 0.00 | 90 | 1014.3 |
| 20260831021133 | 68 | 209 | 0.0 | 1.0 | 0.00 | 0.00 | 0.00 | 91 | 1014.3 |
| 20260831020142 | 67 | 136 | 0.0 | 1.0 | 0.00 | 0.00 | 0.00 | 92 | 1014.3 |
| 20260831020026 | 67 | 136 | 0.0 | 1.0 | 0.00 | 0.00 | 0.00 | 91 | 1014.2 |
| 20260831015153 | 67 | 136 | 0.0 | 0.0 | 0.00 | 0.00 | 0.00 | 91 | 1014.2 |
| 20260831014523 | 67 | 155 | 0.0 | 0.0 | 0.00 | 0.00 | 0.00 | 90 | 1014.1 |
| 20260831014154 | 68 | 156 | 0.0 | 0.0 | 0.00 | 0.00 | 0.00 | 92 | 1014.3 |
| 20260831013140 | 68 | 156 | 0.0 | 2.0 | 0.00 | 0.00 | 0.00 | 91 | 1014.5 |
| 20260831013014 | 67 | 156 | 0.0 | 2.0 | 0.00 | 0.00 | 0.00 | 90 | 1014.4 |
| 20260831012137 | 68 | 239 | 0.0 | 0.0 | 0.00 | 0.00 | 0.00 | 91 | 1014.4 |
| 20260831011512 | 68 | 239 | 0.0 | 0.0 | 0.00 | 0.00 | 0.00 | 91 | 1014.3 |
| 20260831011124 | 68 | 239 | 0.0 | 0.0 | 0.00 | 0.00 | 0.00 | 91 | 1014.3 |
| 20260831010135 | 69 | 239 | 0.0 | 1.0 | 0.00 | 0.00 | 0.00 | 92 | 1014.3 |
| 20260831010010 | 68 | 239 | 0.0 | 1.0 | 0.00 | 0.00 | 0.00 | 91 | 1014.2 |
| 20260831005124 | 69 | 239 | 0.0 | 1.0 | 0.00 | 0.00 | 0.00 | 91 | 1014.4 |
| 20260831004507 | 68 | 239 | 0.0 | 1.0 | 0.00 | 0.00 | 0.00 | 90 | 1014.3 |
| 20260831004143 | 69 | 239 | 0.0 | 0.0 | 0.00 | 0.00 | 0.00 | 91 | 1014.4 |